TimeCST,TemperatureF,Dew PointF,Humidity,Sea Level PressureIn,VisibilityMPH,Wind Direction,Wind SpeedMPH,Gust SpeedMPH,PrecipitationIn,Events,Conditions,WindDirDegrees,DateUTC
12:55 AM,37.6,32.7,83,30.33,10.0,North,10.4,-,N/A,,Mostly Cloudy,360,2013-01-04 06:55:00
1:55 AM,38.3,31.8,77,30.33,10.0,North,10.4,-,N/A,,Mostly Cloudy,10,2013-01-04 07:55:00
2:56 AM,37.8,31.5,78,30.34,10.0,NNE,4.6,-,N/A,,Mostly Cloudy,20,2013-01-04 08:56:00
3:55 AM,37.0,30.9,79,30.32,10.0,North,10.4,-,N/A,,Mostly Cloudy,10,2013-01-04 09:55:00
4:55 AM,36.7,30.6,78,30.32,10.0,North,9.2,-,N/A,,Scattered Clouds,10,2013-01-04 10:55:00
5:55 AM,35.8,30.4,81,30.35,10.0,North,6.9,-,N/A,,Mostly Cloudy,350,2013-01-04 11:55:00
6:55 AM,34.2,30.4,86,30.38,10.0,NNW,6.9,-,N/A,,Mostly Cloudy,340,2013-01-04 12:55:00
7:55 AM,37.6,30.6,76,30.39,10.0,NNE,10.4,-,N/A,,Mostly Cloudy,20,2013-01-04 13:55:00
8:55 AM,41.5,30.2,64,30.39,10.0,NNE,11.5,-,N/A,,Mostly Cloudy,30,2013-01-04 14:55:00
9:55 AM,45.3,31.1,58,30.40,10.0,NNE,8.1,-,N/A,,Mostly Cloudy,20,2013-01-04 15:55:00
10:55 AM,48.6,32.5,54,30.40,10.0,North,8.1,-,N/A,,Mostly Cloudy,10,2013-01-04 16:55:00
11:55 AM,51.6,30.9,45,30.38,10.0,North,10.4,-,N/A,,Mostly Cloudy,360,2013-01-04 17:55:00
12:54 PM,53.8,30.2,41,30.35,10.0,North,10.4,-,N/A,,Mostly Cloudy,360,2013-01-04 18:54:00
12:55 PM,53.8,30.2,41,30.35,10.0,North,6.9,-,N/A,,Mostly Cloudy,360,2013-01-04 18:55:00
1:55 PM,56.3,30.2,37,30.33,10.0,North,12.7,-,N/A,,Mostly Cloudy,10,2013-01-04 19:55:00
2:55 PM,56.5,28.2,34,30.32,10.0,NNE,12.7,-,N/A,,Mostly Cloudy,20,2013-01-04 20:55:00
3:55 PM,55.2,31.6,41,30.33,10.0,North,8.1,-,N/A,,Mostly Cloudy,360,2013-01-04 21:55:00
4:55 PM,52.0,34.9,52,30.33,10.0,North,4.6,-,N/A,,Mostly Cloudy,10,2013-01-04 22:55:00
5:55 PM,49.1,39.4,69,30.35,10.0,North,4.6,-,N/A,,Mostly Cloudy,10,2013-01-04 23:55:00
6:55 PM,47.5,38.1,70,30.38,10.0,NNW,4.6,-,N/A,,Mostly Cloudy,340,2013-01-05 00:55:00
7:55 PM,45.7,37.9,74,30.39,10.0,NW,3.5,-,N/A,,Mostly Cloudy,310,2013-01-05 01:55:00
8:55 PM,44.8,34.2,66,30.38,10.0,North,4.6,-,N/A,,Mostly Cloudy,350,2013-01-05 02:55:00
9:55 PM,43.7,34.7,71,30.37,10.0,North,5.8,-,N/A,,Mostly Cloudy,350,2013-01-05 03:55:00
10:55 PM,44.2,32.2,63,30.36,10.0,North,4.6,-,N/A,,Mostly Cloudy,350,2013-01-05 04:55:00
11:55 PM,43.2,33.4,69,30.36,10.0,North,4.6,-,N/A,,Mostly Cloudy,360,2013-01-05 05:55:00